This is the latest recevied weather packets stored in our database for station/object K4DFD-13. If no packets are shown the sender has not sent any weather packets the latest 10 day(s).
| Time | Temp. | Humidity | Pressure | Rain* | Wind** | Luminosity | Snow |
|---|---|---|---|---|---|---|---|
| 1777045182 | 23.89° C | 44% | 1014 hPa | 0 mm | - | - | - |
| 1777044881 | 23.89° C | 41% | 1014 hPa | 0 mm | - | - | - |
| 1777044581 | 23.33° C | 43% | 1014.3 hPa | 0 mm | - | - | - |
| 1777044281 | 23.89° C | 44% | 1014.3 hPa | 0 mm | - | - | - |
| 1777043981 | 23.89° C | 44% | 1014.1 hPa | 0 mm | - | - | - |
| 1777043680 | 23.33° C | 43% | 1014.1 hPa | 0 mm | - | - | - |
| 1777043380 | 23.33° C | 45% | 1014.3 hPa | 0 mm | - | - | - |
| 1777043080 | 23.33° C | 44% | 1014.1 hPa | 0 mm | - | - | - |
| 1777042779 | 23.33° C | 45% | 1014.3 hPa | 0 mm | - | - | - |
| 1777042479 | 23.33° C | 44% | 1014.3 hPa | 0 mm | - | - | - |
| 1777042179 | 23.33° C | 43% | 1014.4 hPa | 0 mm | - | - | - |
| 1777041879 | 23.33° C | 45% | 1014.3 hPa | 0 mm | - | - | - |
| 1777041578 | 22.78° C | 45% | 1014.4 hPa | 0 mm | - | - | - |
| 1777041278 | 22.78° C | 47% | 1014.5 hPa | 0 mm | - | - | - |
| 1777040978 | 22.22° C | 46% | 1014.5 hPa | 0 mm | - | - | - |
| 1777040677 | 22.22° C | 49% | 1014.5 hPa | 0 mm | - | - | - |
| 1777040377 | 22.22° C | 48% | 1014.6 hPa | 0 mm | - | - | - |
| 1777040076 | 21.67° C | 48% | 1014.6 hPa | 0 mm | - | - | - |
| 1777039776 | 21.67° C | 51% | 1014.7 hPa | 0 mm | - | - | - |
| 1777039476 | 21.67° C | 49% | 1014.7 hPa | 0 mm | - | - | - |
| 1777039176 | 21.67° C | 52% | 1014.8 hPa | 0 mm | - | - | - |
| 1777038875 | 21.67° C | 49% | 1014.8 hPa | 0 mm | - | - | - |
| 1777038575 | 21.67° C | 51% | 1014.8 hPa | 0 mm | - | - | - |
| 1777038275 | 21.11° C | 52% | 1014.8 hPa | 0 mm | - | - | - |
| 1777037974 | 20.56° C | 54% | 1014.9 hPa | 0 mm | - | - | - |
* Rain latest hour (hover to see other rain measurements)
** Current wind speed in m/s (hover to see current wind gust speed)